FW9473 Weather Reports


time (UTC)temp
C
wind
direction
speed
KPH
gust
KPH
rain 1hr
cm
rain 24hr
cm
rain mn
cm
humidity
%
barometer
mb
20260509000052 17 0 0.0 0.0 0.00 0.00 0.00 76 1017.2
20260508234552 17 0 0.0 0.0 0.00 0.00 0.00 74 1017.0
20260508233045 17 157 0.0 1.6 0.00 0.00 0.00 72 1017.1
20260508231552 18 0 0.0 0.0 0.00 0.00 0.00 73 1017.1
20260508230056 18 0 0.0 1.6 0.00 0.00 0.00 71 1017.2
20260508224600 18 0 0.0 3.2 0.00 0.00 0.00 70 1017.0
20260508223051 19 128 0.0 9.7 0.00 0.00 0.00 69 1017.4
20260508221558 19 140 0.0 6.4 0.00 0.00 0.00 69 1017.1
20260508220048 19 0 0.0 4.8 0.00 0.00 0.00 67 1017.2
20260508214546 19 0 0.0 8.0 0.00 0.00 0.00 65 1017.0
20260508213110 20 0 0.0 6.4 0.00 0.00 0.00 65 1017.1
20260508211554 20 0 0.0 11.3 0.00 0.00 0.00 62 1016.9
20260508210049 20 0 0.0 8.0 0.00 0.00 0.00 60 1017.5
20260508204548 20 214 0.0 11.3 0.00 0.00 0.00 59 1017.2
20260508203045 20 193 1.6 9.7 0.00 0.00 0.00 58 1017.3
20260508201551 20 0 0.0 11.3 0.00 0.00 0.00 57 1017.5
20260508200054 21 228 1.6 11.3 0.00 0.00 0.00 56 1017.8
20260508194549 21 138 1.6 9.7 0.00 0.00 0.00 53 1017.8
20260508193120 21 79 3.2 8.0 0.00 0.00 0.00 53 1018.3
20260508191550 20 0 3.2 12.9 0.00 0.00 0.00 54 1018.2
20260508190050 20 229 3.2 17.7 0.00 0.00 0.00 54 1018.5
20260508184609 21 295 3.2 8.0 0.00 0.00 0.00 55 1018.5
20260508183051 21 240 1.6 11.3 0.00 0.00 0.00 55 1019.0
20260508181550 20 182 1.6 19.3 0.00 0.00 0.00 57 1019.4
20260508180058 20 55 4.8 9.7 0.00 0.00 0.00 55 1019.3
20260508174611 20 306 4.8 12.9 0.00 0.00 0.00 56 1019.6
20260508173104 20 229 3.2 14.5 0.00 0.00 0.00 55 1019.7
20260508171615 20 252 0.0 9.7 0.00 0.00 0.00 60 1019.9
20260508170054 20 217 3.2 14.5 0.00 0.00 0.00 55 1020.0
20260508164548 20 244 4.8 12.9 0.00 0.00 0.00 55 1020.3
20260508163047 19 303 3.2 12.9 0.00 0.00 0.00 59 1020.5
20260508161559 19 120 4.8 12.9 0.00 0.00 0.00 57 1020.8
20260508160053 18 63 4.8 12.9 0.00 0.00 0.00 55 1020.8
20260508154549 18 68 3.2 6.4 0.00 0.00 0.00 59 1021.0
20260508153050 18 98 3.2 9.7 0.00 0.00 0.00 58 1021.3
20260508151555 18 96 0.0 6.4 0.00 0.00 0.00 60 1021.3
20260508150049 17 134 3.2 12.9 0.00 0.00 0.00 62 1021.4
20260508144550 17 77 3.2 11.3 0.00 0.00 0.00 63 1021.1
20260508143053 17 65 1.6 11.3 0.00 0.00 0.00 65 1020.9
20260508141553 16 149 4.8 12.9 0.00 0.00 0.00 69 1021.1
20260508140049 16 53 0.0 9.7 0.00 0.00 0.00 73 1021.5
20260508134614 15 63 4.8 11.3 0.00 0.00 0.00 74 1021.5
20260508133110 15 94 4.8 11.3 0.00 0.00 0.00 78 1021.6
20260508131559 14 0 0.0 9.7 0.00 0.00 0.00 81 1021.5
20260508124552 13 0 0.0 0.0 0.00 0.00 0.00 81 1021.2
20260508123101 12 0 0.0 0.0 0.00 0.00 0.00 91 1021.0
20260508121557 11 0 0.0 0.0 0.00 0.00 0.00 95 1020.8
20260508120055 11 0 0.0 1.6 0.00 0.00 0.00 96 1020.6
20260508114605 10 0 0.0 0.0 0.00 0.00 0.00 96 1020.4
20260508113103 10 0 0.0 0.0 0.00 0.00 0.00 96 1020.2
20260508111600 10 0 0.0 0.0 0.00 0.00 0.00 96 1019.8
20260508110059 10 0 0.0 0.0 0.00 0.00 0.00 96 1019.3
20260508104553 10 0 0.0 0.0 0.00 0.00 0.00 96 1019.2
20260508103048 10 0 0.0 0.0 0.00 0.00 0.00 96 1019.0
20260508101548 10 0 0.0 0.0 0.00 0.00 0.00 96 1018.6
20260508100052 10 0 0.0 0.0 0.00 0.00 0.00 96 1018.5
20260508094548 10 0 0.0 0.0 0.00 0.00 0.00 96 1018.3
20260508093043 10 0 0.0 0.0 0.00 0.00 0.00 96 1018.0
20260508091610 10 0 0.0 0.0 0.00 0.00 0.00 95 1018.0
20260508090059 10 0 0.0 0.0 0.00 0.00 0.00 95 1018.1
20260508084548 10 0 0.0 0.0 0.00 0.00 0.00 95 1017.7
20260508083053 10 0 0.0 0.0 0.00 0.00 0.00 95 1017.6
20260508081552 10 0 0.0 0.0 0.00 0.00 0.00 95 1017.9
20260508080052 11 0 0.0 0.0 0.00 0.00 0.00 95 1017.6
20260508074549 10 0 0.0 0.0 0.00 0.00 0.00 94 1017.6
20260508073050 11 0 0.0 0.0 0.00 0.00 0.00 94 1017.7
20260508071556 11 0 0.0 0.0 0.00 0.00 0.00 94 1017.8
20260508070100 11 0 0.0 0.0 0.00 0.00 0.00 94 1017.8
20260508064600 11 0 0.0 0.0 0.00 0.00 0.00 93 1017.6
20260508063138 11 0 0.0 0.0 0.00 0.00 0.00 93 1017.4
20260508061556 11 0 0.0 0.0 0.00 0.00 0.00 92 1017.5
20260508060055 12 0 0.0 1.6 0.00 0.00 0.00 91 1017.4
20260508054552 12 0 0.0 4.8 0.00 0.00 0.00 89 1017.6
20260508053055 13 0 0.0 0.0 0.00 0.00 0.00 86 1017.6
20260508051615 13 0 0.0 0.0 0.00 0.00 0.00 85 1017.6
20260508050048 13 0 0.0 0.0 0.00 0.00 0.00 85 1017.7
20260508044551 13 0 0.0 0.0 0.00 0.00 0.00 84 1017.4
20260508043049 15 0 0.0 3.2 0.00 0.00 0.00 81 1017.4
20260508041547 15 0 1.6 8.0 0.00 0.00 0.00 76 1017.1
20260508040053 16 0 1.6 11.3 0.00 0.00 0.00 76 1017.0
20260508034550 16 0 3.2 8.0 0.00 0.00 0.00 75 1017.0
20260508033050 16 327 0.0 14.5 0.00 0.00 0.00 74 1016.8
20260508031545 16 0 1.6 12.9 0.00 0.00 0.00 74 1017.1
20260508030048 16 0 4.8 16.1 0.00 0.00 0.00 73 1017.0
20260508024547 16 321 6.4 16.1 0.00 0.00 0.00 72 1016.6
20260508023051 17 254 3.2 19.3 0.00 0.00 0.00 72 1016.4
20260508021552 17 328 4.8 17.7 0.00 0.00 0.00 70 1016.1
20260508020050 17 323 3.2 17.7 0.00 0.00 0.00 70 1015.9
20260508014545 17 297 6.4 19.3 0.00 0.00 0.00 70 1015.8
20260508013049 18 0 1.6 20.9 0.00 0.00 0.00 70 1015.5
20260508011551 18 277 8.0 16.1 0.00 0.00 0.00 67 1015.1
20260508010134 18 301 4.8 17.7 0.00 0.00 0.00 67 1015.1
20260508004550 19 223 3.2 17.7 0.00 0.00 0.00 66 1014.8
20260508003046 19 296 1.6 24.1 0.00 0.00 0.00 65 1014.5
20260508001551 20 242 9.7 24.1 0.00 0.00 0.00 66 1014.2